TA2VIP-13 Weather Reports


time (UTC)temp
C
wind
direction
speed
KPH
gust
KPH
rain 1hr
cm
rain 24hr
cm
rain mn
cm
humidity
%
barometer
mb
20260902100036 28 0 0.0 0.0 0.00 0.00 0.00 50 1015.0
20260902095036 27 260 8.0 8.0 0.00 0.00 0.00 50 1015.0
20260902094036 27 260 8.0 8.0 0.00 0.00 0.00 50 1015.0
20260902093036 27 260 8.0 8.0 0.00 0.00 0.00 50 1015.0
20260902092036 26 0 0.0 0.0 0.00 0.00 0.00 50 1015.0
20260902091036 26 0 0.0 0.0 0.00 0.00 0.00 50 1015.0
20260902090036 26 0 0.0 0.0 0.00 0.00 0.00 50 1015.0
20260902085036 26 0 0.0 0.0 0.00 0.00 0.00 50 1015.0
20260902084036 26 0 0.0 0.0 0.00 0.00 0.00 50 1015.0
20260902083036 26 0 0.0 0.0 0.00 0.00 0.00 50 1015.0
20260902082036 25 110 6.4 6.4 0.00 0.00 0.00 50 1015.0
20260902081036 25 110 6.4 6.4 0.00 0.00 0.00 50 1015.0
20260902080036 25 110 6.4 6.4 0.00 0.00 0.00 50 1015.0
20260902075006 25 0 0.0 0.0 0.00 0.00 0.00 50 1015.0
20260902074006 25 0 0.0 0.0 0.00 0.00 0.00 50 1015.0
20260902073006 25 0 0.0 0.0 0.00 0.00 0.00 50 1015.0
20260902072006 25 0 0.0 0.0 0.00 0.00 0.00 50 1015.0
20260902071006 25 0 0.0 0.0 0.00 0.00 0.00 50 1015.0
20260902070007 25 0 0.0 0.0 0.00 0.00 0.00 50 1015.0
20260902065006 22 0 0.0 0.0 0.00 0.00 0.00 50 1015.0
20260902064006 22 0 0.0 0.0 0.00 0.00 0.00 50 1015.0
20260902063006 22 0 0.0 0.0 0.00 0.00 0.00 50 1015.0
20260902062006 20 0 0.0 0.0 0.00 0.00 0.00 50 1015.0
20260902061006 20 0 0.0 0.0 0.00 0.00 0.00 50 1015.0
20260902060006 20 0 0.0 0.0 0.00 0.00 0.00 50 1015.0
20260902055006 20 0 0.0 0.0 0.00 0.00 0.00 50 1015.0
20260902054006 20 0 0.0 0.0 0.00 0.00 0.00 50 1015.0
20260902053006 20 0 0.0 0.0 0.00 0.00 0.00 50 1015.0
20260902052006 16 0 0.0 0.0 0.00 0.00 0.00 50 1015.0
20260902051006 16 0 0.0 0.0 0.00 0.00 0.00 50 1015.0
20260902050008 16 0 0.0 0.0 0.00 0.00 0.00 50 1015.0
20260902045006 15 0 0.0 0.0 0.00 0.00 0.00 50 1015.0
20260902044006 15 0 0.0 0.0 0.00 0.00 0.00 50 1015.0
20260902043006 15 0 0.0 0.0 0.00 0.00 0.00 50 1015.0
20260902042006 15 0 0.0 0.0 0.00 0.00 0.00 50 1015.0
20260902041006 15 0 0.0 0.0 0.00 0.00 0.00 50 1015.0
20260902035936 15 0 0.0 0.0 0.00 0.00 0.00 50 1015.0
20260902034936 13 0 0.0 0.0 0.00 0.00 0.00 50 1015.0
20260902033936 13 0 0.0 0.0 0.00 0.00 0.00 50 1015.0
20260902032936 13 0 0.0 0.0 0.00 0.00 0.00 50 1015.0
20260902031936 15 0 0.0 0.0 0.00 0.00 0.00 50 1015.0
20260902030936 15 0 0.0 0.0 0.00 0.00 0.00 50 1015.0
20260902025936 15 0 0.0 0.0 0.00 0.00 0.00 50 1015.0
20260902024936 15 200 3.2 3.2 0.00 0.00 0.00 50 1015.0
20260902023936 15 200 3.2 3.2 0.00 0.00 0.00 50 1015.0
20260902022936 15 200 3.2 3.2 0.00 0.00 0.00 50 1015.0
20260902021936 15 0 0.0 0.0 0.00 0.00 0.00 50 1015.0
20260902020936 15 0 0.0 0.0 0.00 0.00 0.00 50 1015.0
20260902015936 15 0 0.0 0.0 0.00 0.00 0.00 50 1015.0
20260902014936 16 60 3.2 3.2 0.00 0.00 0.00 50 1015.0
20260902013936 16 60 3.2 3.2 0.00 0.00 0.00 50 1015.0
20260902012936 16 60 3.2 3.2 0.00 0.00 0.00 50 1015.0
20260902011936 16 0 0.0 0.0 0.00 0.00 0.00 50 1015.0
20260902010936 16 0 0.0 0.0 0.00 0.00 0.00 50 1015.0
20260902005936 16 0 0.0 0.0 0.00 0.00 0.00 50 1015.0
20260902004936 15 0 0.0 0.0 0.00 0.00 0.00 50 1015.0
20260902003936 15 0 0.0 0.0 0.00 0.00 0.00 50 1015.0
20260902002936 15 0 0.0 0.0 0.00 0.00 0.00 50 1015.0
20260902001936 16 0 0.0 0.0 0.00 0.00 0.00 50 1015.0
20260902000936 16 0 0.0 0.0 0.00 0.00 0.00 50 1015.0
20260901235936 16 0 0.0 0.0 0.00 0.00 0.00 50 1015.0
20260901234936 16 0 0.0 0.0 0.00 0.00 0.00 50 1015.0
20260901233937 16 0 0.0 0.0 0.00 0.00 0.00 50 1015.0
20260901232936 16 0 0.0 0.0 0.00 0.00 0.00 50 1015.0
20260901230907 16 0 0.0 0.0 0.00 0.00 0.00 50 1015.0
20260901225907 16 0 0.0 0.0 0.00 0.00 0.00 50 1015.0
20260901224907 16 30 8.0 8.0 0.00 0.00 0.00 50 1015.0
20260901223907 16 30 8.0 8.0 0.00 0.00 0.00 50 1015.0
20260901222907 16 30 8.0 8.0 0.00 0.00 0.00 50 1015.0
20260901221907 16 20 8.0 8.0 0.00 0.00 0.00 50 1015.0
20260901220907 16 20 8.0 8.0 0.00 0.00 0.00 50 1015.0
20260901215907 16 20 8.0 8.0 0.00 0.00 0.00 50 1015.0
20260901214907 18 0 0.0 0.0 0.00 0.00 0.00 50 1015.0
20260901213907 18 0 0.0 0.0 0.00 0.00 0.00 50 1015.0
20260901212907 18 0 0.0 0.0 0.00 0.00 0.00 50 1015.0
20260901211907 17 0 0.0 0.0 0.00 0.00 0.00 50 1015.0
20260901210907 17 0 0.0 0.0 0.00 0.00 0.00 50 1015.0
20260901205907 17 0 0.0 0.0 0.00 0.00 0.00 50 1015.0
20260901204907 20 0 0.0 0.0 0.00 0.00 0.00 50 1015.0
20260901203907 20 0 0.0 0.0 0.00 0.00 0.00 50 1015.0
20260901202907 20 0 0.0 0.0 0.00 0.00 0.00 50 1015.0
20260901201907 20 0 0.0 0.0 0.00 0.00 0.00 50 1015.0
20260901200907 20 0 0.0 0.0 0.00 0.00 0.00 50 1015.0